User: anonymous   Login
Location: Bernadets
(43.3537°N, 0.3167°E)
Time: 18:22:07
(UTC+00:00)
Language:

CZ-4 R/B - Orbit

View from above orbital plane
View from above orbital plane
View from above satellite
View from above satellite

Ground track
Ground track

The orbit data is extracted from the following two-line orbital elements,

1 29507U 06046C   22021.06065113  .00000485  00000-0  41807-4 0  9999
2 29507  97.7505  51.6983 0046087   4.0130 356.1455 15.01295891832804
Epoch (UTC): 21 January 2022 01:27:20
Eccentricity: 0.0046087
inclination: 97.7505°
perigee height: 531 km
apogee height: 595 km
right ascension of ascending node: 51.6983°
argument of perigee: 4.0130°
revolutions per day: 15.01295891
mean anomaly at epoch: 356.1455°
orbit number at epoch: 83280

The dashed part of the orbit path shows where the satellite is in the earth's shadow,  

DLR